QPF
0.00 0.03 0.16 0.11 0.06 0.04 0.00 0.03 0.01 0.00 0.00 0.00 0.00 0.00 0.00 0.00 0.00 0.00 0.00 0.00 0.00 0.00 0.00 0.01 0.03 0.01 0.00 0.02 0.00 0.01 0.02 0.03 0.05 0.07 0.05 0.02 0.02 0.00 0.01 0.01 0.01 0.00 0.00 0.03 0.05 0.01 0.01 0.01 0.00
0.00 0.07 0.14 0.05 0.02 0.00 0.00 0.01 0.00 0.00 0.00 0.00 0.00 0.00 0.00 0.00 0.00 0.00 0.00 0.00 0.00 0.00 0.00 0.00 0.01 0.00 0.00 0.00 0.00 0.01 0.02 0.05 0.06 0.07 0.04 0.03 0.05 0.01 0.02 0.01 0.03 0.02 0.00 0.01 0.02 0.00 0.00 0.00 0.01
0.03 0.08 0.04 0.00 0.01 0.00 0.05 0.03 0.00 0.01 0.00 0.00 0.00 0.00 0.00 0.00 0.00 0.00 0.00 0.00 0.00 0.00 0.00 0.00 0.00 0.00 0.00 0.00 0.00 0.00 0.01 0.04 0.03 0.02 0.01 0.01 0.03 0.04 0.00 0.01 0.02 0.00 0.00 0.00 0.00 0.00 0.01 0.03 0.04
0.05 0.02 0.05 0.03 0.01 0.00 0.00 0.02 0.01 0.00 0.00 0.00 0.00 0.00 0.00 0.00 0.00 0.00 0.00 0.00 0.00 0.00 0.00 0.00 0.00 0.00 0.00 0.02 0.01 0.02 0.02 0.02 0.01 0.01 0.00 0.00 0.01 0.03 0.01 0.00 0.00 0.00 0.00 0.00 0.00 0.00 0.00 0.01 0.02
0.02 0.00 0.06 0.03 0.00 0.02 0.00 0.00 0.00 0.00 0.00 0.00 0.00 0.00 0.00 0.00 0.00 0.00 0.00 0.00 0.00 0.00 0.00 0.00 0.01 0.00 0.01 0.01 0.01 0.01 0.00 0.01 0.02 0.01 0.00 0.00 0.00 0.02 0.01 0.00 0.00 0.01 0.00 0.00 0.00 0.00 0.00 0.00 0.00
0.00 0.01 0.07 0.09 0.01 0.01 0.02 0.02 0.00 0.00 0.00 0.00 0.00 0.00 0.00 0.00 0.00 0.00 0.00 0.00 0.00 0.00 0.00 0.00 0.01 0.00 0.01 0.01 0.01 0.00 0.00 0.00 0.00 0.00 0.00 0.00 0.00 0.00 0.02 0.01 0.00 0.00 0.00 0.00 0.00 0.00 0.00 0.00 0.00
0.01 0.05 0.09 0.13 0.00 0.00 0.03 0.03 0.00 0.00 0.00 0.00 0.00 0.00 0.00 0.01 0.00 0.00 0.00 0.00 0.00 0.00 0.00 0.00 0.00 0.00 0.01 0.01 0.01 0.00 0.00 0.00 0.00 0.00 0.00 0.00 0.01 0.00 0.00 0.00 0.00 0.00 0.00 0.00 0.00 0.00 0.00 0.00 0.00
0.07 0.01 0.04 0.14 0.06 0.00 0.01 0.02 0.00 0.00 0.00 0.00 0.00 0.00 0.00 0.00 0.00 0.00 0.00 0.00 0.00 0.00 0.00 0.00 0.00 0.00 0.00 0.00 0.00 0.00 0.00 0.00 0.00 0.00 0.00 0.00 0.00 0.00 0.00 0.00 0.00 0.00 0.00 0.00 0.00 0.00 0.00 0.00 0.00
0.20 0.04 0.01 0.07 0.14 0.01 0.00 0.00 0.00 0.00 0.00 0.00 0.00 0.00 0.00 0.00 0.00 0.00 0.00 0.00 0.00 0.00 0.00 0.00 0.00 0.00 0.00 0.00 0.00 0.00 0.00 0.00 0.00 0.00 0.00 0.00 0.00 0.00 0.00 0.00 0.00 0.00 0.00 0.00 0.00 0.00 0.00 0.00 0.00
0.26 0.05 0.01 0.04 0.17 0.04 0.04 0.00 0.00 0.00 0.00 0.00 0.00 0.00 0.00 0.00 0.00 0.00 0.00 0.00 0.00 0.00 0.00 0.00 0.00 0.00 0.00 0.00 0.00 0.00 0.00 0.00 0.00 0.00 0.00 0.00 0.00 0.00 0.00 0.00 0.00 0.00 0.00 0.00 0.00 0.00 0.00 0.00 0.00
0.11 0.04 0.00 0.06 0.13 0.03 0.00 0.00 0.00 0.00 0.00 0.00 0.00 0.00 0.00 0.00 0.00 0.00 0.00 0.00 0.00 0.00 0.00 0.00 0.00 0.00 0.00 0.00 0.01 0.00 0.00 0.00 0.00 0.00 0.00 0.00 0.00 0.00 0.00 0.00 0.00 0.00 0.00 0.00 0.00 0.00 0.00 0.00 0.00
0.02 0.12 0.06 0.06 0.10 0.06 0.00 0.00 0.00 0.00 0.00 0.00 0.00 0.00 0.00 0.00 0.00 0.00 0.00 0.00 0.00 0.00 0.00 0.00 0.02 0.00 0.00 0.00 0.00 0.00 0.03 0.01 0.00 0.00 0.00 0.00 0.00 0.00 0.00 0.00 0.00 0.00 0.00 0.00 0.00 0.00 0.00 0.00 0.00
0.00 0.05 0.06 0.09 0.09 0.07 0.05 0.01 0.00 0.00 0.00 0.00 0.00 0.00 0.00 0.00 0.00 0.00 0.00 0.00 0.00 0.00 0.00 0.00 0.00 0.00 0.01 0.00 0.00 0.01 0.01 0.00 0.00 0.00 0.00 0.00 0.00 0.00 0.00 0.00 0.00 0.00 0.00 0.00 0.00 0.00 0.00 0.00 0.00
0.00 0.02 0.11 0.27 0.21 0.06 0.04 0.02 0.00 0.00 0.00 0.00 0.00 0.00 0.00 0.00 0.00 0.00 0.00 0.00 0.00 0.00 0.00 0.00 0.00 0.00 0.00 0.00 0.00 0.00 0.03 0.01 0.00 0.00 0.00 0.00 0.00 0.00 0.00 0.00 0.00 0.00 0.00 0.00 0.00 0.00 0.00 0.00 0.00
0.00 0.01 0.09 0.24 0.21 0.13 0.02 0.02 0.01 0.00 0.00 0.00 0.00 0.00 0.00 0.00 0.00 0.00 0.00 0.00 0.00 0.00 0.00 0.00 0.00 0.00 0.03 0.01 0.00 0.00 0.00 0.00 0.00 0.00 0.00 0.00 0.00 0.00 0.00 0.00 0.00 0.00 0.00 0.00 0.00 0.00 0.00 0.00 0.00
0.00 0.00 0.05 0.11 0.13 0.13 0.05 0.03 0.00 0.00 0.00 0.00 0.00 0.00 0.00 0.00 0.00 0.00 0.00 0.00 0.00 0.00 0.00 0.00 0.00 0.00 0.00 0.01 0.00 0.00 0.00 0.00 0.00 0.00 0.00 0.00 0.00 0.00 0.00 0.00 0.00 0.00 0.00 0.00 0.00 0.00 0.00 0.00 0.00
0.00 0.00 0.02 0.05 0.01 0.03 0.06 0.01 0.00 0.00 0.00 0.00 0.00 0.00 0.00 0.00 0.00 0.00 0.00 0.00 0.00 0.00 0.00 0.00 0.00 0.00 0.00 0.00 0.00 0.00 0.00 0.00 0.00 0.00 0.00 0.00 0.00 0.00 0.00 0.00 0.00 0.00 0.00 0.00 0.00 0.00 0.00 0.00 0.00
0.00 0.00 0.00 0.01 0.02 0.01 0.01 0.02 0.00 0.00 0.00 0.00 0.00 0.00 0.00 0.00 0.00 0.00 0.00 0.00 0.00 0.00 0.00 0.00 0.00 0.00 0.00 0.00 0.00 0.00 0.00 0.00 0.00 0.00 0.00 0.00 0.00 0.00 0.00 0.00 0.00 0.00 0.00 0.00 0.00 0.00 0.00 0.00 0.00
0.00 0.00 0.00 0.00 0.00 0.00 0.00 0.00 0.00 0.00 0.00 0.00 0.00 0.00 0.00 0.00 0.00 0.00 0.00 0.00 0.00 0.00 0.00 0.00 0.00 0.00 0.00 0.00 0.00 0.00 0.00 0.00 0.00 0.00 0.00 0.00 0.00 0.00 0.00 0.00 0.00 0.00 0.00 0.00 0.00 0.00 0.00 0.00 0.00
0.00 0.00 0.00 0.00 0.00 0.00 0.00 0.00 0.00 0.00 0.00 0.00 0.00 0.00 0.00 0.00 0.00 0.00 0.00 0.00 0.00 0.00 0.00 0.00 0.00 0.00 0.00 0.00 0.00 0.00 0.00 0.00 0.00 0.00 0.00 0.00 0.00 0.00 0.00 0.00 0.00 0.00 0.00 0.00 0.00 0.00 0.00 0.00 0.00
0.00 0.00 0.00 0.00 0.00 0.00 0.00 0.02 0.00 0.00 0.00 0.00 0.00 0.00 0.00 0.00 0.00 0.00 0.00 0.00 0.00 0.00 0.00 0.00 0.00 0.00 0.00 0.00 0.00 0.00 0.00 0.00 0.00 0.00 0.00 0.00 0.00 0.00 0.00 0.00 0.00 0.00 0.00 0.00 0.00 0.00 0.00 0.00 0.00
0.00 0.00 0.00 0.00 0.00 0.00 0.00 0.00 0.01 0.00 0.00 0.00 0.00 0.00 0.00 0.00 0.00 0.00 0.00 0.00 0.00 0.00 0.00 0.00 0.00 0.00 0.00 0.00 0.00 0.00 0.00 0.00 0.00 0.00 0.00 0.00 0.00 0.00 0.00 0.00 0.00 0.00 0.00 0.00 0.00 0.00 0.00 0.00 0.00
0.00 0.00 0.00 0.00 0.00 0.00 0.00 0.00 0.00 0.00 0.00 0.00 0.00 0.00 0.00 0.00 0.00 0.00 0.00 0.00 0.00 0.00 0.00 0.00 0.00 0.00 0.00 0.00 0.00 0.00 0.00 0.00 0.00 0.00 0.00 0.00 0.00 0.00 0.00 0.00 0.00 0.00 0.00 0.00 0.00 0.00 0.00 0.00 0.00
0.00 0.00 0.00 0.00 0.00 0.00 0.00 0.00 0.00 0.00 0.00 0.00 0.00 0.00 0.00 0.00 0.00 0.00 0.00 0.00 0.00 0.00 0.00 0.00 0.00 0.00 0.00 0.00 0.00 0.00 0.00 0.00 0.00 0.00 0.00 0.00 0.00 0.00 0.00 0.00 0.00 0.00 0.00 0.00 0.00 0.00 0.00 0.00 0.00
0.00 0.00 0.00 0.00 0.00 0.00 0.00 0.00 0.00 0.00 0.00 0.00 0.00 0.00 0.00 0.00 0.00 0.00 0.00 0.00 0.00 0.00 0.00 0.00 0.00 0.00 0.00 0.00 0.00 0.00 0.00 0.00 0.00 0.00 0.00 0.00 0.00 0.00 0.00 0.00 0.00 0.00 0.00 0.00 0.00 0.00 0.00 0.00 0.00
0.00 0.00 0.00 0.00 0.00 0.00 0.00 0.00 0.00 0.00 0.00 0.00 0.00 0.00 0.00 0.00 0.00 0.00 0.00 0.00 0.00 0.00 0.00 0.00 0.00 0.00 0.00 0.00 0.00 0.00 0.00 0.00 0.00 0.00 0.00 0.00 0.00 0.00 0.00 0.00 0.00 0.00 0.00 0.00 0.00 0.00 0.00 0.00 0.00
0.00 0.00 0.00 0.00 0.00 0.00 0.00 0.00 0.00 0.00 0.00 0.00 0.00 0.00 0.00 0.00 0.00 0.00 0.00 0.00 0.00 0.00 0.00 0.00 0.00 0.00 0.00 0.00 0.00 0.00 0.00 0.00 0.00 0.00 0.00 0.00 0.00 0.00 0.00 0.00 0.00 0.00 0.00 0.00 0.00 0.00 0.00 0.00 0.00
0.00 0.00 0.00 0.00 0.00 0.00 0.00 0.00 0.00 0.00 0.00 0.00 0.00 0.00 0.00 0.00 0.00 0.00 0.00 0.00 0.00 0.00 0.00 0.00 0.00 0.00 0.00 0.00 0.00 0.00 0.00 0.00 0.00 0.00 0.00 0.00 0.00 0.00 0.00 0.00 0.00 0.00 0.00 0.00 0.00 0.00 0.00 0.00 0.00
0.00 0.00 0.00 0.00 0.00 0.00 0.00 0.00 0.00 0.00 0.00 0.00 0.00 0.00 0.00 0.00 0.00 0.00 0.00 0.00 0.00 0.00 0.00 0.00 0.00 0.00 0.00 0.00 0.00 0.00 0.00 0.00 0.00 0.00 0.00 0.00 0.00 0.00 0.00 0.00 0.00 0.00 0.00 0.00 0.00 0.00 0.00 0.00 0.00
0.00 0.00 0.00 0.00 0.00 0.00 0.00 0.00 0.00 0.00 0.00 0.00 0.00 0.00 0.00 0.00 0.00 0.00 0.00 0.00 0.00 0.00 0.00 0.00 0.00 0.00 0.00 0.00 0.00 0.00 0.00 0.00 0.00 0.00 0.00 0.00 0.00 0.00 0.00 0.00 0.00 0.00 0.01 0.00 0.00 0.00 0.00 0.00 0.00
MSLP
1010.93 1010.97 1011.58 1011.58 1011.48 1010.77 1009.78 1009.68 1008.40 1008.24 1008.94 1008.91 1009.16 1009.62 1010.61 1011.12 1011.81 1013.91 1014.02 1014.57 1014.82 1015.28 1015.45 1015.62 1015.75 1015.91 1016.15 1016.43 1016.48 1016.55 1016.58 1016.77 1016.88 1016.90 1016.86 1016.94 1016.90 1016.92 1017.34 1017.30 1017.33 1017.35 1017.37 1017.42 1017.53 1017.63 1017.69 1017.73 1017.78
1010.58 1010.88 1011.51 1011.06 1010.83 1010.20 1009.76 1009.20 1008.47 1008.73 1009.05 1009.06 1009.51 1009.95 1010.81 1012.11 1012.18 1013.76 1014.42 1014.76 1014.81 1015.24 1015.59 1015.84 1015.87 1016.04 1016.32 1016.47 1016.62 1016.74 1016.78 1016.98 1017.07 1017.03 1017.05 1017.00 1017.15 1017.32 1017.40 1017.49 1017.50 1017.60 1017.58 1017.78 1017.89 1017.98 1018.08 1018.19 1018.12
1010.14 1010.40 1011.12 1010.75 1010.20 1009.50 1009.43 1008.85 1008.76 1009.14 1009.18 1008.86 1009.79 1010.58 1011.52 1012.63 1012.94 1013.77 1014.21 1014.76 1015.01 1015.39 1015.70 1015.91 1016.08 1016.21 1016.47 1016.67 1016.83 1016.96 1017.06 1017.21 1017.32 1017.23 1017.26 1017.23 1017.42 1017.57 1017.61 1017.71 1017.77 1017.87 1017.91 1018.00 1018.09 1018.17 1018.29 1018.42 1018.55
1010.20 1010.54 1010.92 1010.69 1009.49 1008.40 1008.30 1008.60 1008.65 1008.98 1009.61 1009.55 1010.06 1011.22 1012.08 1012.41 1012.91 1013.72 1014.50 1014.75 1015.33 1015.58 1015.79 1015.94 1016.13 1016.38 1016.61 1016.86 1017.07 1017.18 1017.34 1017.56 1017.58 1017.56 1017.39 1017.63 1017.76 1017.90 1017.94 1018.06 1018.13 1018.15 1018.13 1018.11 1018.25 1018.35 1018.57 1018.72 1018.78
1010.52 1011.03 1011.55 1010.87 1009.43 1008.30 1007.95 1007.98 1008.30 1009.04 1009.52 1010.02 1010.13 1011.86 1012.53 1012.96 1013.18 1013.90 1014.65 1015.09 1015.38 1015.78 1015.96 1016.17 1016.30 1016.46 1016.77 1017.11 1017.22 1017.37 1017.55 1017.74 1017.79 1017.78 1017.83 1017.91 1018.02 1018.19 1018.23 1018.33 1018.31 1018.32 1018.29 1018.34 1018.53 1018.66 1018.81 1018.84 1018.79
1011.12 1012.32 1012.30 1010.77 1009.10 1008.22 1008.09 1007.76 1008.28 1009.06 1010.12 1010.72 1011.01 1011.56 1013.05 1013.58 1013.88 1014.44 1014.85 1015.24 1015.39 1015.91 1016.10 1016.29 1016.47 1016.66 1016.91 1017.18 1017.41 1017.56 1017.69 1017.82 1017.91 1017.99 1018.14 1018.20 1018.28 1018.42 1018.44 1018.44 1018.42 1018.46 1018.49 1018.67 1018.89 1018.93 1019.00 1018.90 1018.91
1011.83 1013.20 1012.82 1010.95 1009.34 1008.66 1008.31 1008.18 1008.41 1009.43 1010.17 1010.93 1011.13 1012.05 1013.55 1014.02 1014.11 1014.59 1015.12 1015.54 1015.73 1015.85 1016.20 1016.52 1016.72 1016.85 1017.05 1017.28 1017.45 1017.68 1017.88 1017.99 1018.09 1018.23 1018.41 1018.48 1018.55 1018.60 1018.61 1018.65 1018.70 1018.72 1018.79 1018.97 1018.99 1019.02 1019.11 1019.05 1019.12
1012.95 1013.89 1013.43 1012.23 1010.30 1008.44 1008.23 1007.97 1008.42 1008.97 1010.02 1010.65 1011.03 1012.08 1013.19 1013.82 1014.20 1014.76 1015.42 1015.85 1016.17 1016.20 1016.34 1016.63 1016.86 1017.00 1017.18 1017.35 1017.56 1017.79 1018.02 1018.24 1018.39 1018.49 1018.61 1018.64 1018.69 1018.74 1018.83 1018.91 1019.03 1018.99 1019.03 1019.09 1018.93 1018.96 1019.11 1019.15 1019.09
1013.42 1013.51 1013.81 1013.14 1011.41 1010.27 1007.63 1007.89 1008.89 1009.13 1009.86 1010.51 1010.66 1011.42 1012.16 1013.33 1014.16 1014.94 1015.70 1016.26 1016.45 1016.63 1016.65 1016.69 1016.82 1017.09 1017.31 1017.47 1017.61 1017.88 1018.14 1018.34 1018.46 1018.56 1018.73 1018.86 1019.00 1019.02 1019.01 1019.09 1019.17 1019.12 1019.07 1018.97 1018.97 1019.01 1019.12 1019.11 1019.22
1012.98 1014.22 1013.77 1012.96 1012.31 1011.03 1009.74 1007.93 1008.75 1009.71 1010.29 1010.66 1011.24 1012.13 1012.70 1013.45 1014.13 1014.70 1015.45 1016.05 1016.36 1016.66 1016.84 1016.75 1016.86 1017.25 1017.43 1017.45 1017.76 1018.02 1018.22 1018.51 1018.70 1018.83 1018.95 1019.17 1019.14 1019.12 1019.13 1019.22 1019.29 1019.24 1019.11 1018.94 1018.89 1018.89 1018.98 1019.32 1019.39
1012.35 1012.56 1012.68 1012.34 1011.39 1011.42 1010.19 1008.69 1008.53 1009.25 1010.38 1010.12 1010.80 1012.05 1012.96 1013.38 1013.81 1014.37 1015.06 1015.23 1015.70 1016.14 1016.59 1016.76 1016.87 1017.08 1017.32 1017.64 1018.02 1018.19 1018.41 1018.68 1018.79 1018.90 1019.09 1019.31 1019.30 1019.19 1019.30 1019.54 1019.50 1019.35 1019.06 1019.06 1018.99 1018.94 1018.81 1018.87 1019.48
1010.71 1012.23 1012.33 1011.16 1011.33 1011.32 1009.76 1008.27 1008.95 1008.54 1009.80 1010.17 1010.80 1011.67 1012.38 1013.11 1013.62 1014.02 1014.57 1015.16 1015.70 1015.99 1016.06 1016.62 1016.81 1017.22 1017.37 1017.52 1018.02 1018.21 1018.37 1018.61 1018.88 1018.89 1019.09 1019.37 1019.42 1019.29 1019.46 1019.58 1019.48 1019.45 1019.40 1019.32 1019.22 1019.21 1018.95 1018.79 1018.57
1008.87 1011.25 1011.79 1010.94 1010.79 1010.75 1009.86 1007.97 1008.41 1009.13 1009.79 1010.46 1010.85 1011.51 1012.28 1012.82 1013.17 1013.44 1013.86 1014.49 1015.10 1015.62 1015.80 1016.28 1016.51 1016.91 1017.17 1017.48 1017.79 1018.03 1018.22 1018.46 1018.61 1018.83 1018.98 1019.16 1019.33 1019.36 1019.45 1019.46 1019.44 1019.47 1019.45 1019.33 1019.33 1019.11 1018.91 1018.75 1018.55
1008.11 1009.71 1010.69 1011.38 1011.18 1010.47 1008.91 1008.71 1008.59 1009.72 1009.94 1010.60 1011.00 1011.41 1011.86 1012.38 1012.85 1013.17 1013.63 1014.17 1014.84 1015.29 1015.52 1016.07 1016.61 1016.84 1017.08 1017.47 1017.67 1017.89 1018.00 1018.26 1018.48 1018.66 1018.72 1018.88 1019.19 1019.32 1019.37 1019.42 1019.30 1019.33 1019.27 1019.06 1019.12 1019.09 1018.89 1018.50 1018.30
1007.82 1009.22 1010.09 1010.91 1010.74 1009.14 1008.24 1009.16 1009.21 1009.44 1009.87 1010.41 1011.05 1011.29 1011.59 1011.85 1012.40 1012.91 1013.21 1013.88 1014.42 1014.89 1015.38 1015.88 1016.30 1016.42 1017.05 1017.26 1017.67 1017.77 1017.79 1018.12 1018.35 1018.62 1018.58 1018.71 1019.00 1019.13 1019.10 1019.14 1019.14 1018.97 1018.93 1018.89 1018.95 1018.81 1018.61 1018.63 1018.31
1007.83 1008.70 1010.01 1010.83 1010.53 1009.71 1008.38 1009.37 1009.52 1009.57 1009.87 1010.39 1010.70 1011.08 1011.33 1011.71 1011.92 1012.55 1013.09 1013.51 1014.17 1014.72 1015.21 1015.76 1016.13 1016.34 1016.71 1017.09 1017.45 1017.58 1017.70 1017.99 1018.15 1018.33 1018.44 1018.59 1018.80 1018.88 1019.17 1019.03 1018.96 1018.72 1018.84 1019.06 1018.99 1019.03 1019.01 1018.91 1018.76
1008.55 1009.06 1009.51 1010.23 1009.42 1009.34 1008.76 1009.48 1009.25 1009.54 1009.65 1010.33 1010.53 1010.66 1010.94 1011.43 1011.77 1012.19 1012.79 1013.22 1013.82 1014.41 1015.09 1015.45 1015.87 1016.15 1016.29 1016.61 1016.98 1017.30 1017.44 1017.86 1017.99 1018.08 1018.21 1018.35 1018.49 1018.72 1018.94 1018.82 1018.75 1018.92 1019.16 1018.95 1019.01 1019.01 1019.12 1019.03 1018.82
1008.98 1009.11 1008.98 1009.28 1008.75 1009.03 1008.67 1008.77 1008.58 1009.01 1009.50 1009.83 1010.17 1010.43 1010.60 1011.10 1011.40 1011.74 1012.46 1013.07 1013.67 1014.17 1014.61 1015.13 1015.57 1015.98 1016.24 1016.52 1016.85 1017.11 1017.48 1017.64 1017.85 1017.95 1018.03 1018.22 1018.42 1018.41 1018.58 1018.71 1018.81 1018.81 1018.80 1018.97 1018.97 1019.03 1019.05 1019.08 1018.79
1008.67 1008.72 1008.20 1007.31 1007.11 1007.44 1007.43 1008.12 1008.29 1008.57 1009.20 1009.28 1009.66 1010.09 1010.22 1010.68 1010.97 1011.40 1011.93 1012.84 1013.49 1013.98 1014.53 1014.86 1015.39 1015.67 1016.15 1016.63 1017.16 1017.40 1017.56 1017.76 1017.93 1017.90 1017.79 1018.12 1018.24 1018.24 1018.38 1018.46 1018.64 1018.87 1018.87 1018.97 1019.07 1019.24 1019.28 1018.96 1018.83
1008.08 1007.93 1007.37 1006.70 1006.15 1006.68 1007.01 1007.34 1007.50 1007.91 1008.04 1008.19 1008.67 1009.42 1009.73 1010.22 1010.72 1011.21 1011.68 1012.44 1013.07 1013.67 1014.22 1014.67 1015.05 1015.45 1015.73 1016.23 1016.61 1016.68 1017.00 1017.36 1017.34 1017.59 1017.78 1017.89 1018.04 1018.12 1018.25 1018.48 1018.67 1018.70 1018.82 1018.94 1019.15 1019.24 1019.19 1019.24 1019.09
1007.37 1007.49 1006.86 1006.83 1006.00 1005.76 1006.52 1007.32 1007.51 1007.35 1007.78 1008.19 1008.31 1008.58 1009.10 1009.37 1010.15 1010.85 1011.47 1011.99 1012.65 1013.23 1013.81 1014.23 1014.66 1015.23 1015.45 1015.88 1016.38 1016.69 1016.95 1017.13 1017.69 1017.78 1017.91 1017.81 1017.85 1017.96 1018.12 1018.34 1018.49 1018.50 1018.48 1018.89 1019.03 1019.07 1019.06 1019.50 1019.31
1007.68 1006.67 1006.79 1006.62 1006.65 1006.41 1006.10 1007.04 1007.13 1006.94 1007.10 1007.48 1007.63 1008.01 1008.32 1008.66 1009.30 1010.04 1010.85 1011.55 1011.97 1012.56 1013.21 1013.70 1014.21 1014.83 1015.10 1015.64 1016.15 1016.55 1016.79 1017.18 1017.16 1017.26 1017.46 1017.60 1017.60 1017.66 1017.82 1018.00 1018.20 1018.49 1018.47 1018.76 1018.93 1018.97 1019.08 1019.36 1019.77
1007.68 1006.85 1006.96 1006.94 1006.75 1006.57 1006.12 1007.23 1005.83 1006.38 1006.59 1006.65 1006.47 1006.74 1007.13 1007.51 1008.18 1009.00 1009.74 1010.39 1011.12 1011.90 1012.61 1013.22 1013.85 1014.39 1014.76 1015.33 1015.80 1016.26 1016.48 1016.54 1016.70 1017.16 1017.33 1017.46 1017.38 1017.41 1017.51 1017.78 1017.99 1018.15 1018.34 1018.59 1018.83 1018.92 1019.09 1019.35 1019.65
1007.74 1007.31 1006.91 1006.95 1007.33 1007.11 1006.23 1006.62 1005.22 1005.32 1004.13 1004.68 1005.20 1005.62 1005.84 1006.34 1007.05 1007.82 1008.70 1009.56 1010.42 1011.21 1011.95 1012.67 1013.42 1013.89 1014.34 1014.81 1015.40 1015.93 1016.22 1016.47 1016.82 1017.13 1017.35 1017.35 1017.31 1017.41 1017.24 1017.44 1017.71 1017.87 1018.10 1018.35 1018.51 1018.75 1019.02 1019.24 1019.44
1007.86 1008.69 1008.66 1008.50 1008.23 1007.54 1006.34 1005.67 1003.92 1002.92 1002.26 1002.63 1003.01 1003.62 1004.17 1004.96 1006.18 1007.00 1008.00 1008.96 1009.78 1010.53 1011.24 1012.07 1012.69 1013.36 1013.89 1014.40 1014.81 1015.29 1015.71 1016.01 1016.47 1016.67 1016.92 1017.15 1017.28 1017.33 1017.22 1017.25 1017.66 1017.93 1017.86 1018.07 1018.24 1018.62 1018.91 1019.12 1019.35
1008.21 1009.17 1009.90 1009.63 1008.90 1007.76 1005.70 1004.27 1001.51 1001.32 1000.84 1000.83 1001.25 1001.83 1003.25 1004.14 1004.96 1005.92 1006.90 1007.94 1008.83 1009.69 1010.64 1011.41 1012.21 1012.90 1013.46 1013.89 1014.39 1014.82 1015.26 1015.67 1015.85 1016.12 1016.37 1016.55 1016.66 1016.70 1016.65 1017.03 1017.32 1017.46 1017.64 1017.83 1018.19 1018.49 1018.70 1018.98 1019.22
1008.42 1008.67 1008.81 1009.58 1008.95 1008.01 1006.18 1003.33 1001.07 1000.30 999.73 999.88 1000.68 1001.76 1002.42 1003.27 1004.02 1004.97 1005.99 1006.96 1008.08 1008.98 1009.77 1010.51 1011.39 1012.17 1012.83 1013.32 1013.87 1014.35 1014.88 1015.13 1015.27 1015.63 1015.76 1016.00 1016.24 1016.31 1016.52 1016.56 1016.98 1017.19 1017.49 1017.72 1017.92 1018.31 1018.55 1018.79 1018.88
1009.13 1009.00 1008.89 1009.66 1009.22 1007.86 1005.71 1003.52 1001.32 1000.29 999.85 999.78 1000.07 1001.04 1001.55 1002.34 1003.23 1004.17 1005.12 1006.02 1007.01 1007.88 1008.80 1009.82 1010.53 1011.21 1011.92 1012.63 1013.21 1013.80 1014.29 1014.56 1014.77 1015.07 1015.35 1015.67 1015.91 1016.12 1016.12 1016.33 1016.66 1016.95 1017.19 1017.39 1018.02 1018.27 1018.50 1018.72 1018.71
1009.49 1009.38 1009.88 1009.38 1008.69 1007.75 1005.99 1003.29 1000.97 1000.22 1000.25 999.95 1000.82 1000.74 1000.67 1001.62 1002.27 1003.33 1004.13 1005.16 1006.04 1007.13 1008.28 1009.13 1009.98 1010.63 1011.26 1011.85 1012.52 1013.12 1013.70 1014.13 1014.40 1014.61 1014.92 1015.17 1015.46 1015.60 1015.69 1015.91 1016.24 1016.63 1016.93 1017.29 1017.72 1018.02 1018.17 1018.47 1018.52
1010.05 1010.42 1010.81 1010.93 1009.18 1008.04 1005.57 1002.85 1000.64 999.85 999.60 1000.56 1000.86 1001.46 1001.79 1001.30 1001.66 1002.54 1003.42 1004.52 1005.71 1006.65 1007.61 1008.40 1009.22 1009.92 1010.41 1010.96 1011.61 1012.26 1012.76 1013.29 1013.78 1014.07 1014.36 1014.80 1015.08 1015.22 1015.14 1015.46 1015.89 1016.37 1016.69 1017.00 1017.29 1017.56 1017.72 1017.90 1018.05
Thickness
5806 5804 5800 5794 5769 5767 5764 5767 5796 5783 5771 5788 5790 5778 5770 5772 5762 5728 5764 5762 5760 5754 5753 5753 5753 5753 5752 5751 5751 5753 5755 5755 5754 5753 5754 5755 5757 5756 5754 5755 5758 5759 5759 5759 5761 5761 5762 5762 5762
5813 5809 5799 5790 5770 5748 5759 5786 5780 5784 5787 5792 5788 5784 5770 5755 5775 5758 5758 5763 5761 5757 5755 5754 5754 5754 5753 5754 5753 5753 5756 5756 5756 5755 5755 5756 5757 5757 5758 5759 5761 5761 5762 5762 5762 5761 5762 5761 5762
5819 5815 5788 5778 5773 5763 5755 5786 5788 5790 5795 5792 5781 5784 5771 5754 5769 5764 5768 5765 5762 5759 5757 5756 5755 5756 5756 5756 5755 5755 5755 5756 5757 5757 5756 5756 5758 5758 5759 5762 5762 5762 5763 5764 5762 5761 5762 5761 5760
5812 5804 5795 5774 5773 5796 5789 5795 5799 5793 5791 5794 5787 5766 5776 5782 5773 5772 5769 5766 5762 5759 5758 5758 5758 5757 5758 5758 5757 5756 5756 5756 5757 5758 5757 5759 5759 5760 5761 5762 5763 5763 5764 5766 5764 5763 5762 5761 5761
5811 5793 5770 5770 5783 5800 5809 5808 5805 5788 5788 5786 5790 5765 5766 5777 5780 5777 5772 5768 5762 5760 5760 5759 5760 5760 5759 5758 5758 5757 5757 5756 5757 5759 5760 5760 5760 5761 5762 5762 5763 5765 5766 5767 5765 5765 5765 5765 5765
5789 5779 5763 5768 5791 5805 5806 5816 5808 5795 5789 5785 5778 5774 5765 5778 5774 5773 5772 5768 5765 5761 5762 5762 5761 5761 5760 5759 5759 5759 5758 5758 5759 5759 5760 5761 5761 5761 5762 5763 5765 5767 5768 5767 5766 5766 5766 5768 5767
5782 5764 5762 5778 5794 5793 5800 5817 5800 5790 5785 5780 5789 5762 5764 5769 5775 5774 5771 5767 5765 5765 5763 5763 5762 5762 5761 5761 5761 5760 5759 5759 5760 5761 5761 5761 5762 5762 5763 5764 5766 5768 5768 5768 5768 5769 5770 5771 5769
5778 5767 5761 5767 5779 5797 5813 5820 5814 5801 5788 5803 5799 5766 5760 5772 5776 5773 5770 5766 5765 5765 5765 5764 5763 5763 5763 5763 5762 5761 5760 5760 5760 5762 5762 5762 5763 5764 5765 5766 5767 5768 5769 5770 5773 5773 5773 5774 5775
5783 5754 5748 5756 5772 5775 5826 5816 5819 5816 5799 5799 5803 5793 5792 5787 5781 5772 5767 5764 5764 5764 5766 5765 5766 5766 5765 5765 5765 5763 5762 5761 5761 5763 5763 5764 5765 5767 5768 5769 5770 5771 5774 5776 5776 5776 5776 5776 5775
5777 5750 5759 5774 5777 5782 5796 5818 5810 5798 5794 5793 5792 5794 5794 5789 5782 5774 5767 5763 5763 5762 5764 5768 5768 5767 5767 5767 5767 5766 5764 5763 5763 5764 5765 5766 5767 5770 5772 5773 5772 5774 5777 5779 5781 5781 5780 5776 5776
5781 5767 5780 5781 5794 5793 5797 5814 5822 5805 5786 5799 5792 5789 5790 5788 5785 5779 5774 5774 5770 5770 5769 5771 5770 5770 5769 5768 5767 5768 5768 5766 5766 5767 5766 5768 5771 5775 5777 5775 5776 5779 5781 5784 5784 5785 5785 5784 5779
5785 5783 5787 5792 5798 5792 5798 5824 5811 5812 5801 5810 5807 5804 5798 5791 5788 5785 5782 5778 5773 5773 5777 5774 5772 5769 5770 5771 5770 5770 5771 5770 5769 5770 5770 5770 5775 5780 5780 5781 5782 5782 5783 5784 5786 5786 5788 5788 5792
5808 5787 5784 5793 5793 5799 5808 5822 5815 5810 5813 5813 5810 5805 5799 5796 5797 5798 5795 5789 5785 5780 5781 5779 5776 5776 5774 5774 5775 5775 5776 5775 5775 5774 5774 5775 5778 5782 5784 5786 5786 5786 5786 5787 5788 5789 5792 5792 5796
5821 5807 5801 5789 5790 5801 5811 5817 5818 5809 5815 5807 5805 5801 5803 5801 5799 5800 5799 5794 5792 5789 5788 5784 5780 5779 5779 5778 5777 5779 5781 5781 5779 5779 5780 5782 5783 5785 5787 5789 5790 5790 5791 5792 5793 5792 5794 5799 5802
5822 5798 5802 5791 5794 5797 5821 5799 5801 5814 5814 5805 5801 5803 5806 5807 5807 5803 5804 5801 5797 5797 5794 5791 5786 5785 5782 5782 5781 5782 5786 5785 5783 5783 5785 5787 5788 5790 5791 5793 5794 5797 5796 5796 5797 5798 5800 5802 5805
5811 5800 5775 5782 5792 5801 5814 5777 5805 5815 5810 5801 5805 5805 5807 5808 5811 5810 5808 5806 5802 5799 5799 5796 5794 5791 5788 5787 5786 5786 5789 5789 5788 5789 5789 5791 5792 5794 5793 5796 5798 5799 5798 5798 5801 5801 5801 5804 5805
5793 5772 5777 5774 5799 5802 5809 5781 5806 5814 5811 5800 5805 5809 5809 5806 5812 5813 5812 5811 5808 5805 5800 5799 5800 5798 5795 5794 5792 5793 5793 5791 5793 5793 5794 5796 5797 5796 5796 5799 5800 5799 5799 5801 5802 5803 5804 5805 5807
5766 5774 5783 5778 5800 5797 5798 5794 5809 5814 5808 5805 5808 5810 5811 5808 5811 5817 5815 5814 5811 5809 5807 5804 5802 5801 5800 5798 5796 5796 5797 5796 5796 5798 5799 5799 5798 5800 5801 5801 5802 5802 5802 5802 5804 5805 5807 5808 5811
5783 5781 5781 5800 5817 5807 5804 5802 5805 5812 5808 5806 5809 5807 5814 5811 5817 5820 5820 5815 5813 5811 5808 5807 5804 5804 5802 5799 5795 5796 5796 5799 5800 5801 5803 5801 5801 5803 5803 5804 5803 5801 5803 5804 5805 5805 5806 5810 5813
5783 5774 5778 5802 5818 5807 5805 5802 5812 5813 5811 5816 5815 5812 5816 5815 5814 5817 5819 5816 5813 5811 5810 5809 5808 5806 5808 5805 5803 5805 5804 5804 5805 5805 5805 5805 5805 5805 5805 5804 5804 5804 5804 5804 5804 5806 5807 5808 5812
5783 5773 5780 5785 5810 5817 5805 5789 5797 5814 5814 5815 5820 5821 5821 5820 5814 5816 5815 5816 5815 5812 5810 5811 5811 5810 5810 5810 5808 5807 5806 5805 5801 5803 5805 5806 5806 5806 5806 5806 5806 5806 5805 5803 5805 5808 5809 5803 5809
5747 5795 5792 5791 5780 5762 5807 5749 5780 5804 5808 5811 5815 5817 5819 5823 5821 5820 5817 5815 5818 5817 5816 5814 5814 5811 5812 5811 5808 5805 5802 5799 5805 5808 5809 5808 5808 5808 5807 5808 5807 5806 5806 5805 5805 5808 5809 5808 5801
5763 5788 5781 5782 5773 5778 5784 5759 5790 5798 5794 5806 5818 5822 5825 5831 5828 5825 5824 5823 5822 5822 5818 5816 5814 5813 5813 5811 5809 5807 5806 5809 5810 5806 5806 5806 5808 5808 5807 5806 5806 5806 5806 5806 5806 5807 5808 5808 5806
5779 5772 5773 5775 5757 5733 5776 5764 5781 5784 5814 5821 5825 5828 5833 5836 5836 5835 5833 5830 5825 5826 5822 5819 5814 5813 5813 5813 5811 5808 5808 5807 5805 5803 5802 5804 5805 5805 5806 5806 5805 5805 5806 5807 5808 5808 5808 5807 5806
5765 5735 5705 5713 5722 5726 5771 5761 5789 5816 5838 5839 5837 5840 5845 5845 5837 5836 5833 5829 5827 5825 5823 5820 5817 5814 5813 5812 5811 5810 5809 5808 5804 5804 5804 5803 5803 5802 5804 5806 5804 5803 5805 5806 5808 5808 5808 5807 5804
5742 5727 5695 5693 5702 5729 5768 5751 5807 5836 5851 5857 5856 5854 5848 5847 5845 5840 5837 5834 5830 5828 5824 5821 5816 5814 5814 5812 5811 5810 5809 5809 5809 5808 5808 5807 5807 5807 5808 5805 5805 5805 5806 5806 5805 5806 5806 5805 5803
5736 5714 5742 5709 5725 5712 5745 5783 5820 5838 5840 5852 5846 5845 5844 5846 5848 5844 5841 5837 5832 5829 5827 5825 5819 5816 5815 5813 5812 5811 5809 5809 5810 5809 5810 5810 5809 5810 5807 5808 5806 5805 5803 5803 5803 5803 5802 5802 5802
5729 5742 5708 5698 5692 5699 5730 5758 5773 5812 5823 5840 5843 5841 5846 5847 5848 5847 5842 5840 5837 5835 5831 5827 5824 5820 5817 5814 5814 5811 5809 5810 5810 5811 5811 5809 5809 5809 5809 5808 5807 5806 5804 5803 5801 5799 5799 5797 5798
5705 5710 5710 5709 5704 5704 5711 5749 5803 5816 5822 5829 5832 5843 5852 5848 5850 5846 5844 5842 5841 5836 5829 5826 5822 5819 5817 5816 5813 5812 5810 5809 5810 5809 5809 5810 5809 5808 5808 5809 5808 5805 5803 5802 5800 5798 5797 5794 5795
5706 5698 5690 5673 5682 5702 5711 5740 5819 5825 5833 5826 5826 5831 5841 5853 5852 5849 5845 5839 5835 5833 5828 5824 5822 5819 5820 5818 5814 5812 5812 5811 5809 5808 5808 5808 5808 5808 5808 5807 5804 5802 5801 5800 5798 5796 5797 5795 5793